• In Czech Republic
  • List of Countries
  • For 7 days
  • Water Temperature
  • Satellite Maps
  • Weather Map
  • Weather Widgets
  • user-avatar
    Login

    Hourly Weather Saskatoon

    Today, 22 June, Friday

    Time Temperature Precipitation Wind Pressure Humidity
    00:00 +22°C° 0.1 mm 1 mps 713 mmHg 57%
    01:00 +21°C° 0.1 mm 1 mps 712 mmHg 59%
    02:00 +21°C° 0.1 mm 1 mps 712 mmHg 61%
    03:00 +21°C° 0 mm 1 mps 712 mmHg 63%
    04:00 +20°C° 0 mm 1 mps 712 mmHg 64%
    05:00 +21°C° 0 mm 1 mps 712 mmHg 66%
    06:00 +22°C° 0 mm 1 mps 712 mmHg 61%
    07:00 +24°C° 0 mm 1 mps 712 mmHg 57%
    08:00 +25°C° 0 mm 1 mps 712 mmHg 52%
    09:00 +27°C° 0 mm 1 mps 712 mmHg 47%
    10:00 +28°C° 0 mm 2 mps 711 mmHg 42%
    11:00 +29°C° 0 mm 2 mps 711 mmHg 36%
    12:00 +29°C° 0 mm 2 mps 711 mmHg 38%
    13:00 +29°C° 0 mm 1 mps 711 mmHg 40%
    14:00 +29°C° 0 mm 1 mps 711 mmHg 41%
    15:00 +29°C° 0 mm 1 mps 711 mmHg 42%
    16:00 +29°C° 0 mm 1 mps 711 mmHg 42%
    17:00 +29°C° 0 mm 2 mps 710 mmHg 42%
    18:00 +27°C° 0 mm 2 mps 710 mmHg 49%
    19:00 +25°C° 0 mm 2 mps 710 mmHg 55%
    20:00 +24°C° 0 mm 2 mps 709 mmHg 62%
    21:00 +21°C° 0.1 mm 2 mps 709 mmHg 67%
    22:00 +20°C° 0.1 mm 2 mps 709 mmHg 71%
    23:00 +19°C° 0.1 mm 2 mps 709 mmHg 75%

    Tomorrow, 23 June, Saturday

    Time Temperature Precipitation Wind Pressure Humidity
    00:00 +19°C° 0.1 mm 2 mps 709 mmHg 77%
    01:00 +18°C° 0.1 mm 2 mps 709 mmHg 79%
    02:00 +18°C° 0.1 mm 2 mps 709 mmHg 81%
    03:00 +18°C° 0 mm 2 mps 709 mmHg 82%
    04:00 +18°C° 0 mm 2 mps 709 mmHg 83%
    05:00 +17°C° 0 mm 2 mps 709 mmHg 84%
    06:00 +19°C° 0 mm 2 mps 710 mmHg 78%
    07:00 +21°C° 0 mm 3 mps 710 mmHg 73%
    08:00 +24°C° 0 mm 3 mps 710 mmHg 67%
    09:00 +25°C° 0.1 mm 3 mps 710 mmHg 61%
    10:00 +27°C° 0.1 mm 3 mps 711 mmHg 55%
    11:00 +28°C° 0.1 mm 3 mps 711 mmHg 49%
    12:00 +28°C° 0.1 mm 4 mps 711 mmHg 48%
    13:00 +29°C° 0.1 mm 4 mps 711 mmHg 46%
    14:00 +29°C° 0.1 mm 4 mps 711 mmHg 45%
    15:00 +28°C° 0.4 mm 4 mps 712 mmHg 48%
    16:00 +28°C° 0.4 mm 4 mps 712 mmHg 52%
    17:00 +27°C° 0.4 mm 5 mps 712 mmHg 55%
    18:00 +26°C° 0.6 mm 4 mps 712 mmHg 63%
    19:00 +23°C° 0.6 mm 4 mps 712 mmHg 70%
    20:00 +22°C° 0.6 mm 3 mps 713 mmHg 78%
    21:00 +21°C° 0 mm 3 mps 713 mmHg 82%
    22:00 +20°C° 0 mm 3 mps 713 mmHg 87%
    23:00 +19°C° 0 mm 3 mps 714 mmHg 91%

    Day after tomorrow, 24 June, Sunday

    Time Temperature Precipitation Wind Pressure Humidity
    00:00 +18°C° 0 mm 2 mps 714 mmHg 92%
    01:00 +18°C° 0 mm 2 mps 714 mmHg 93%
    02:00 +17°C° 0 mm 2 mps 714 mmHg 94%
    03:00 +17°C° 0 mm 2 mps 714 mmHg 94%
    04:00 +17°C° 0 mm 2 mps 715 mmHg 93%
    05:00 +18°C° 0 mm 2 mps 715 mmHg 93%
    06:00 +19°C° 0.1 mm 2 mps 715 mmHg 86%
    07:00 +21°C° 0.1 mm 2 mps 716 mmHg 80%
    08:00 +23°C° 0.1 mm 2 mps 716 mmHg 73%
    09:00 +25°C° 0.9 mm 2 mps 716 mmHg 68%
    10:00 +26°C° 0.9 mm 3 mps 716 mmHg 63%
    11:00 +27°C° 0.9 mm 3 mps 716 mmHg 57%
    12:00 +27°C° 0.6 mm 3 mps 716 mmHg 56%
    13:00 +28°C° 0.6 mm 3 mps 716 mmHg 54%
    14:00 +28°C° 0.6 mm 4 mps 716 mmHg 53%
    15:00 +28°C° 0.7 mm 3 mps 716 mmHg 54%
    16:00 +28°C° 0.7 mm 3 mps 716 mmHg 54%
    17:00 +28°C° 0.7 mm 3 mps 715 mmHg 55%
    18:00 +27°C° 0.4 mm 3 mps 715 mmHg 61%
    19:00 +25°C° 0.4 mm 3 mps 715 mmHg 66%
    20:00 +24°C° 0.4 mm 3 mps 715 mmHg 72%
    21:00 +22°C° 0 mm 3 mps 715 mmHg 74%
    22:00 +21°C° 0 mm 3 mps 715 mmHg 77%
    23:00 +20°C° 0 mm 3 mps 714 mmHg 80%

    25 June, Monday

    Time Temperature Precipitation Wind Pressure Humidity
    00:00 +20°C° 0 mm 3 mps 714 mmHg 81%
    01:00 +20°C° 0 mm 3 mps 714 mmHg 83%
    02:00 +19°C° 0 mm 3 mps 714 mmHg 85%
    03:00 +19°C° 0 mm 3 mps 714 mmHg 85%
    04:00 +19°C° 0 mm 3 mps 713 mmHg 86%
    05:00 +19°C° 0 mm 4 mps 713 mmHg 86%
    06:00 +21°C° 0 mm 4 mps 713 mmHg 80%
    07:00 +23°C° 0 mm 4 mps 713 mmHg 75%
    08:00 +26°C° 0 mm 4 mps 713 mmHg 69%
    09:00 +27°C° 0 mm 4 mps 713 mmHg 61%
    10:00 +29°C° 0 mm 4 mps 713 mmHg 54%
    11:00 +32°C° 0 mm 5 mps 713 mmHg 47%
    12:00 +32°C° 0 mm 5 mps 712 mmHg 46%
    13:00 +32°C° 0 mm 5 mps 712 mmHg 45%
    14:00 +33°C° 0 mm 5 mps 712 mmHg 44%
    15:00 +33°C° 0 mm 5 mps 711 mmHg 44%
    16:00 +32°C° 0 mm 5 mps 711 mmHg 45%
    17:00 +32°C° 0 mm 6 mps 710 mmHg 46%
    18:00 +30°C° 0 mm 5 mps 710 mmHg 51%
    19:00 +28°C° 0 mm 5 mps 709 mmHg 57%
    20:00 +27°C° 0 mm 5 mps 709 mmHg 63%
    21:00 +26°C° 0 mm 6 mps 709 mmHg 63%
    22:00 +26°C° 0 mm 6 mps 709 mmHg 62%
    23:00 +24°C° 0 mm 7 mps 709 mmHg 62%

    26 June, Tuesday

    Time Temperature Precipitation Wind Pressure Humidity
    00:00 +23°C° 0.3 mm 6 mps 708 mmHg 66%
    01:00 +22°C° 0.3 mm 6 mps 708 mmHg 71%
    02:00 +22°C° 0.3 mm 5 mps 708 mmHg 75%
    03:00 +21°C° 0.2 mm 5 mps 708 mmHg 75%
    04:00 +21°C° 0.2 mm 4 mps 708 mmHg 75%
    05:00 +20°C° 0.2 mm 4 mps 708 mmHg 75%
    06:00 +20°C° 0.4 mm 4 mps 708 mmHg 76%
    07:00 +20°C° 0.4 mm 3 mps 708 mmHg 77%
    08:00 +20°C° 0.4 mm 3 mps 708 mmHg 78%
    09:00 +21°C° 0.2 mm 3 mps 708 mmHg 74%
    10:00 +21°C° 0.2 mm 3 mps 708 mmHg 71%
    11:00 +22°C° 0.2 mm 4 mps 708 mmHg 68%
    12:00 +22°C° 0.2 mm 4 mps 708 mmHg 67%
    13:00 +22°C° 0.2 mm 5 mps 708 mmHg 65%
    14:00 +23°C° 0.2 mm 6 mps 708 mmHg 63%
    15:00 +22°C° 0.4 mm 7 mps 708 mmHg 59%
    16:00 +22°C° 0.4 mm 8 mps 709 mmHg 55%
    17:00 +22°C° 0.4 mm 9 mps 709 mmHg 51%
    18:00 +21°C° 0 mm 8 mps 709 mmHg 54%
    19:00 +20°C° 0 mm 7 mps 710 mmHg 57%
    20:00 +17°C° 0 mm 6 mps 710 mmHg 60%
    21:00 +17°C° 0 mm 6 mps 710 mmHg 57%
    22:00 +17°C° 0 mm 6 mps 711 mmHg 54%
    23:00 +17°C° 0 mm 7 mps 711 mmHg 51%

    27 June, Wednesday

    Time Temperature Precipitation Wind Pressure Humidity
    00:00 +16°C° 0 mm 7 mps 711 mmHg 52%
    01:00 +16°C° 0 mm 6 mps 711 mmHg 53%
    02:00 +15°C° 0 mm 6 mps 712 mmHg 53%
    03:00 +14°C° 0 mm 6 mps 712 mmHg 57%
    04:00 +14°C° 0 mm 5 mps 712 mmHg 61%
    05:00 +13°C° 0 mm 5 mps 712 mmHg 65%
    06:00 +15°C° 0 mm 5 mps 712 mmHg 60%
    07:00 +16°C° 0 mm 5 mps 712 mmHg 55%
    08:00 +19°C° 0 mm 5 mps 712 mmHg 50%
    09:00 +20°C° 0 mm 5 mps 712 mmHg 44%
    10:00 +21°C° 0 mm 6 mps 712 mmHg 39%
    11:00 +22°C° 0 mm 6 mps 712 mmHg 33%
    12:00 +23°C° 0 mm 6 mps 712 mmHg 33%
    13:00 +23°C° 0 mm 6 mps 712 mmHg 34%
    14:00 +23°C° 0 mm 6 mps 712 mmHg 34%
    15:00 +23°C° 0 mm 5 mps 712 mmHg 34%
    16:00 +23°C° 0 mm 4 mps 712 mmHg 35%
    17:00 +23°C° 0 mm 4 mps 712 mmHg 36%
    18:00 +21°C° 0 mm 3 mps 711 mmHg 42%
    19:00 +20°C° 0 mm 2 mps 711 mmHg 48%
    20:00 +19°C° 0 mm 1 mps 711 mmHg 54%
    21:00 +18°C° 0 mm 1 mps 711 mmHg 56%
    22:00 +16°C° 0 mm 1 mps 711 mmHg 58%
    23:00 +15°C° 0 mm 1 mps 711 mmHg 60%
    Show more